| time (UTC) | temp F | wind direction | speed MPH | gust MPH | rain 1hr in | rain 24hr in | rain mn in | humidity % | barometer mb |
| 20260505054313 | 60 | 22 | 10.0 | 13.0 | 0.00 | 0.00 | 0.00 | 7 | 1007.0 |
| 20260505053813 | 60 | 21 | 13.0 | 22.0 | 0.00 | 0.00 | 0.00 | 7 | 1007.0 |
| 20260505053315 | 61 | 7 | 18.0 | 25.0 | 0.00 | 0.00 | 0.00 | 7 | 1007.0 |
| 20260505052813 | 61 | 355 | 9.0 | 15.0 | 0.00 | 0.00 | 0.00 | 7 | 1007.0 |
| 20260505052313 | 62 | 304 | 13.0 | 17.0 | 0.00 | 0.00 | 0.00 | 7 | 1007.0 |
| 20260505051813 | 62 | 283 | 14.0 | 19.0 | 0.00 | 0.00 | 0.01 | 7 | 1006.0 |
| 20260505051313 | 62 | 284 | 13.0 | 16.0 | 0.00 | 0.00 | 0.00 | 7 | 1007.0 |
| 20260505050815 | 63 | 284 | 14.0 | 18.0 | 0.00 | 0.00 | 0.00 | 7 | 1006.0 |
| 20260505050314 | 63 | 284 | 14.0 | 17.0 | 0.14 | 0.00 | 0.00 | 7 | 1006.0 |
| 20260505041313 | 67 | 282 | 13.0 | 17.0 | 0.00 | 0.00 | 0.00 | 7 | 1005.0 |
| 20260505040813 | 67 | 278 | 13.0 | 21.0 | 0.00 | 0.00 | 0.00 | 7 | 1006.0 |
| 20260505040314 | 68 | 283 | 15.0 | 19.0 | 0.00 | 0.00 | 0.00 | 7 | 1006.0 |
| 20260505035813 | 68 | 283 | 15.0 | 19.0 | 0.00 | 0.00 | 0.00 | 7 | 1006.0 |
| 20260505035314 | 68 | 282 | 16.0 | 18.0 | 0.00 | 0.00 | 0.00 | 7 | 1005.0 |
| 20260505034814 | 69 | 284 | 13.0 | 19.0 | 0.00 | 0.00 | 0.00 | 7 | 1005.0 |
| 20260505034313 | 69 | 308 | 11.0 | 19.0 | 0.00 | 0.00 | 0.00 | 7 | 1005.0 |
| 20260505033813 | 69 | 3 | 14.0 | 19.0 | 0.00 | 0.00 | 0.00 | 7 | 1005.0 |
| 20260505033314 | 70 | 336 | 12.0 | 17.0 | 0.00 | 0.00 | 0.00 | 7 | 1005.0 |
| 20260505032813 | 70 | 317 | 11.0 | 15.0 | 0.00 | 0.00 | 0.00 | 7 | 1005.0 |
| 20260505032313 | 71 | 318 | 9.0 | 12.0 | 0.00 | 0.00 | 0.00 | 7 | 1005.0 |
| 20260505031813 | 71 | 328 | 10.0 | 13.0 | 0.00 | 0.00 | 0.00 | 7 | 1005.0 |
| 20260505031314 | 71 | 347 | 10.0 | 15.0 | 0.00 | 0.00 | 0.00 | 7 | 1004.0 |
| 20260505030814 | 71 | 348 | 12.0 | 19.0 | 0.00 | 0.00 | 0.00 | 7 | 1004.0 |
| 20260505030313 | 72 | 348 | 10.0 | 13.0 | 0.00 | 0.00 | 0.00 | 7 | 1004.0 |
| 20260505025814 | 72 | 313 | 9.0 | 11.0 | 0.00 | 0.00 | 0.00 | 7 | 1004.0 |
| 20260505025313 | 72 | 356 | 8.0 | 12.0 | 0.00 | 0.00 | 0.00 | 7 | 1004.0 |
| 20260505024813 | 73 | 348 | 10.0 | 14.0 | 0.00 | 0.00 | 0.00 | 7 | 1004.0 |
| 20260505024315 | 73 | 348 | 9.0 | 11.0 | 0.00 | 0.00 | 0.00 | 7 | 1004.0 |
| 20260505023813 | 73 | 354 | 7.0 | 13.0 | 0.00 | 0.00 | 0.00 | 7 | 1004.0 |
| 20260505023313 | 73 | 3 | 16.0 | 19.0 | 0.00 | 0.00 | 0.00 | 7 | 1004.0 |
| 20260505022813 | 73 | 4 | 15.0 | 18.0 | 0.00 | 0.00 | 0.00 | 7 | 1004.0 |
| 20260505022313 | 72 | 4 | 15.0 | 19.0 | 0.00 | 0.00 | 0.00 | 7 | 1004.0 |
| 20260505021813 | 71 | 4 | 15.0 | 19.0 | 0.00 | 0.00 | 0.00 | 7 | 1003.0 |
| 20260505021313 | 71 | 5 | 15.0 | 20.0 | 0.00 | 0.00 | 0.00 | 7 | 1003.0 |
| 20260505020813 | 71 | 340 | 8.0 | 13.0 | 0.00 | 0.00 | 0.00 | 7 | 1003.0 |
| 20260505020313 | 72 | 350 | 5.0 | 8.0 | 0.00 | 0.00 | 0.00 | 7 | 1003.0 |
| 20260505015813 | 73 | 45 | 3.0 | 4.0 | 0.00 | 0.00 | 0.00 | 7 | 1003.0 |
| 20260505015313 | 74 | 232 | 2.0 | 3.0 | 0.00 | 0.00 | 0.00 | 7 | 1003.0 |
| 20260505014813 | 74 | 218 | 2.0 | 5.0 | 0.00 | 0.00 | 0.00 | 7 | 1002.0 |
| 20260505014314 | 74 | 192 | 2.0 | 3.0 | 0.00 | 0.00 | 0.00 | 7 | 1002.0 |
| 20260505013813 | 74 | 200 | 2.0 | 6.0 | 0.00 | 0.00 | 0.00 | 7 | 1002.0 |
| 20260505013313 | 74 | 182 | 2.0 | 3.0 | 0.00 | 0.00 | 0.00 | 7 | 1002.0 |
| 20260505012815 | 74 | 203 | 3.0 | 4.0 | 0.00 | 0.00 | 0.00 | 7 | 1002.0 |
| 20260505012313 | 74 | 224 | 4.0 | 9.0 | 0.00 | 0.00 | 0.00 | 7 | 1002.0 |
| 20260505011813 | 75 | 214 | 5.0 | 6.0 | 0.00 | 0.00 | 0.00 | 7 | 1002.0 |
| 20260505011313 | 75 | 208 | 5.0 | 6.0 | 0.00 | 0.00 | 0.00 | 7 | 1002.0 |
| 20260505010813 | 75 | 172 | 4.0 | 6.0 | 0.00 | 0.00 | 0.00 | 7 | 1002.0 |
| 20260505010313 | 75 | 179 | 4.0 | 5.0 | 0.00 | 0.00 | 0.00 | 7 | 1002.0 |
| 20260505005813 | 75 | 212 | 4.0 | 6.0 | 0.00 | 0.00 | 0.00 | 7 | 1002.0 |
| 20260505005314 | 76 | 215 | 5.0 | 8.0 | 0.00 | 0.00 | 0.00 | 7 | 1002.0 |
| 20260505004813 | 76 | 226 | 3.0 | 5.0 | 0.00 | 0.00 | 0.00 | 7 | 1002.0 |
| 20260505004313 | 76 | 256 | 3.0 | 5.0 | 0.00 | 0.00 | 0.00 | 7 | 1002.0 |
| 20260505003815 | 77 | 261 | 2.0 | 2.0 | 0.00 | 0.00 | 0.00 | 7 | 1002.0 |
| 20260505003313 | 77 | 242 | 2.0 | 4.0 | 0.00 | 0.00 | 0.00 | 7 | 1002.0 |
| 20260505002813 | 77 | 215 | 6.0 | 8.0 | 0.00 | 0.00 | 0.00 | 7 | 1002.0 |
| 20260505002313 | 78 | 208 | 8.0 | 9.0 | 0.00 | 0.00 | 0.00 | 7 | 1002.0 |
| 20260505001815 | 78 | 206 | 8.0 | 9.0 | 0.00 | 0.00 | 0.00 | 7 | 1002.0 |
| 20260505001316 | 78 | 212 | 8.0 | 10.0 | 0.00 | 0.00 | 0.00 | 7 | 1002.0 |
| 20260505000813 | 79 | 207 | 8.0 | 10.0 | 0.00 | 0.00 | 0.00 | 7 | 1002.0 |
| 20260505000314 | 79 | 209 | 9.0 | 10.0 | 0.00 | 0.00 | 0.00 | 7 | 1002.0 |
| 20260504235813 | 80 | 200 | 8.0 | 9.0 | 0.00 | 0.00 | 0.00 | 7 | 1002.0 |
| 20260504234845 | 80 | 208 | 7.0 | 10.0 | 0.00 | 0.00 | 0.00 | 7 | 1002.0 |
| 20260504234313 | 80 | 208 | 7.0 | 9.0 | 0.00 | 0.00 | 0.00 | 7 | 1002.0 |
| 20260504233813 | 80 | 205 | 7.0 | 9.0 | 0.00 | 0.00 | 0.00 | 7 | 1002.0 |
| 20260504233313 | 81 | 193 | 6.0 | 9.0 | 0.00 | 0.00 | 0.00 | 7 | 1002.0 |
| 20260504232813 | 81 | 208 | 7.0 | 10.0 | 0.00 | 0.00 | 0.00 | 7 | 1002.0 |
| 20260504232314 | 81 | 200 | 9.0 | 10.0 | 0.00 | 0.00 | 0.00 | 7 | 1002.0 |
| 20260504231815 | 81 | 194 | 8.0 | 11.0 | 0.00 | 0.00 | 0.00 | 7 | 1002.0 |
| 20260504231313 | 82 | 189 | 6.0 | 10.0 | 0.00 | 0.00 | 0.00 | 7 | 1002.0 |
| 20260504230813 | 82 | 204 | 6.0 | 9.0 | 0.00 | 0.00 | 0.00 | 7 | 1002.0 |
| 20260504230313 | 82 | 212 | 4.0 | 7.0 | 0.00 | 0.00 | 0.00 | 7 | 1002.0 |
| 20260504225817 | 81 | 202 | 5.0 | 6.0 | 0.00 | 0.00 | 0.00 | 7 | 1002.0 |
| 20260504225314 | 81 | 209 | 8.0 | 10.0 | 0.00 | 0.00 | 0.00 | 7 | 1002.0 |
| 20260504224815 | 81 | 210 | 7.0 | 9.0 | 0.00 | 0.00 | 0.00 | 7 | 1002.0 |
| 20260504224313 | 81 | 219 | 7.0 | 10.0 | 0.00 | 0.00 | 0.00 | 7 | 1002.0 |
| 20260504223813 | 81 | 208 | 8.0 | 11.0 | 0.00 | 0.00 | 0.00 | 7 | 1002.0 |
| 20260504223316 | 81 | 201 | 8.0 | 10.0 | 0.00 | 0.00 | 0.00 | 7 | 1002.0 |
| 20260504222813 | 81 | 196 | 10.0 | 13.0 | 0.00 | 0.00 | 0.00 | 7 | 1001.0 |
| 20260504222313 | 81 | 191 | 9.0 | 14.0 | 0.00 | 0.00 | 0.00 | 7 | 1001.0 |
| 20260504221814 | 81 | 193 | 11.0 | 14.0 | 0.00 | 0.00 | 0.00 | 7 | 1001.0 |
| 20260504221313 | 81 | 202 | 10.0 | 12.0 | 0.00 | 0.00 | 0.00 | 7 | 1001.0 |
| 20260504220813 | 82 | 194 | 11.0 | 16.0 | 0.00 | 0.00 | 0.00 | 7 | 1001.0 |
| 20260504220314 | 82 | 191 | 11.0 | 14.0 | 0.00 | 0.00 | 0.00 | 7 | 1001.0 |
| 20260504215813 | 82 | 208 | 10.0 | 15.0 | 0.00 | 0.00 | 0.00 | 7 | 1001.0 |
| 20260504215313 | 82 | 209 | 8.0 | 11.0 | 0.00 | 0.00 | 0.00 | 7 | 1001.0 |
| 20260504214813 | 82 | 210 | 8.0 | 9.0 | 0.00 | 0.00 | 0.00 | 7 | 1002.0 |
| 20260504214314 | 82 | 199 | 11.0 | 15.0 | 0.00 | 0.00 | 0.00 | 7 | 1002.0 |
| 20260504213814 | 82 | 202 | 12.0 | 14.0 | 0.00 | 0.00 | 0.00 | 7 | 1002.0 |
| 20260504213314 | 83 | 192 | 11.0 | 14.0 | 0.00 | 0.00 | 0.00 | 7 | 1002.0 |
| 20260504212813 | 83 | 183 | 11.0 | 14.0 | 0.00 | 0.00 | 0.00 | 7 | 1002.0 |
| 20260504212314 | 83 | 221 | 9.0 | 15.0 | 0.00 | 0.00 | 0.00 | 7 | 1002.0 |
| 20260504211815 | 83 | 217 | 7.0 | 11.0 | 0.00 | 0.00 | 0.00 | 7 | 1002.0 |
| 20260504211318 | 83 | 209 | 10.0 | 12.0 | 0.00 | 0.00 | 0.00 | 7 | 1002.0 |
| 20260504210813 | 83 | 222 | 6.0 | 9.0 | 0.00 | 0.00 | 0.00 | 7 | 1002.0 |
| 20260504210313 | 83 | 218 | 7.0 | 15.0 | 0.00 | 0.00 | 0.00 | 7 | 1002.0 |
| 20260504205816 | 83 | 237 | 3.0 | 5.0 | 0.00 | 0.00 | 0.00 | 7 | 1002.0 |
| 20260504205313 | 83 | 201 | 10.0 | 12.0 | 0.00 | 0.00 | 0.00 | 7 | 1002.0 |
| 20260504204815 | 83 | 215 | 7.0 | 9.0 | 0.00 | 0.00 | 0.00 | 7 | 1002.0 |
| 20260504204314 | 83 | 197 | 7.0 | 9.0 | 0.00 | 0.00 | 0.00 | 7 | 1002.0 |
| 20260504203813 | 83 | 200 | 8.0 | 10.0 | 0.00 | 0.00 | 0.00 | 7 | 1002.0 |
| 20260504203313 | 83 | 221 | 7.0 | 11.0 | 0.00 | 0.00 | 0.00 | 7 | 1002.0 |
| 20260504202815 | 83 | 208 | 6.0 | 8.0 | 0.00 | 0.00 | 0.00 | 7 | 1002.0 |
| 20260504202315 | 85 | 225 | 6.0 | 8.0 | 0.00 | 0.00 | 0.00 | 7 | 1002.0 |
| 20260504201814 | 85 | 217 | 2.0 | 4.0 | 0.00 | 0.00 | 0.00 | 7 | 1002.0 |
| 20260504201315 | 86 | 249 | 4.0 | 8.0 | 0.00 | 0.00 | 0.00 | 7 | 1002.0 |
| 20260504200816 | 85 | 273 | 3.0 | 5.0 | 0.00 | 0.00 | 0.00 | 7 | 1002.0 |
| 20260504200315 | 83 | 292 | 1.0 | 5.0 | 0.00 | 0.00 | 0.00 | 7 | 1002.0 |
| 20260504195813 | 84 | 204 | 9.0 | 11.0 | 0.00 | 0.00 | 0.00 | 7 | 1002.0 |
| 20260504195315 | 85 | 241 | 2.0 | 6.0 | 0.00 | 0.00 | 0.00 | 7 | 1002.0 |
| 20260504194814 | 85 | 240 | 5.0 | 10.0 | 0.00 | 0.00 | 0.00 | 7 | 1002.0 |
| 20260504194315 | 85 | 302 | 2.0 | 6.0 | 0.00 | 0.00 | 0.00 | 7 | 1002.0 |
| 20260504193815 | 85 | 200 | 4.0 | 8.0 | 0.00 | 0.00 | 0.00 | 7 | 1002.0 |
| 20260504193315 | 86 | 231 | 5.0 | 9.0 | 0.00 | 0.00 | 0.00 | 7 | 1002.0 |
| 20260504192813 | 85 | 207 | 3.0 | 5.0 | 0.00 | 0.00 | 0.00 | 7 | 1002.0 |
| 20260504192314 | 85 | 10 | 2.0 | 5.0 | 0.00 | 0.00 | 0.00 | 7 | 1003.0 |
| 20260504191815 | 85 | 173 | 2.0 | 3.0 | 0.00 | 0.00 | 0.00 | 7 | 1003.0 |
| 20260504191313 | 83 | 251 | 3.0 | 7.0 | 0.00 | 0.00 | 0.00 | 7 | 1003.0 |
| 20260504190814 | 83 | 162 | 6.0 | 8.0 | 0.00 | 0.00 | 0.00 | 7 | 1003.0 |
| 20260504190317 | 85 | 195 | 6.0 | 7.0 | 0.00 | 0.00 | 0.00 | 7 | 1003.0 |
| 20260504185814 | 84 | 166 | 2.0 | 3.0 | 0.00 | 0.00 | 0.00 | 7 | 1003.0 |
| 20260504185316 | 83 | 183 | 2.0 | 3.0 | 0.00 | 0.00 | 0.00 | 7 | 1003.0 |
| 20260504184813 | 84 | 162 | 7.0 | 9.0 | 0.00 | 0.00 | 0.00 | 7 | 1003.0 |
| 20260504184319 | 84 | 205 | 4.0 | 6.0 | 0.00 | 0.00 | 0.00 | 7 | 1003.0 |
| 20260504183815 | 83 | 238 | 2.0 | 4.0 | 0.00 | 0.00 | 0.00 | 7 | 1003.0 |
| 20260504183314 | 82 | 23 | 2.0 | 6.0 | 0.00 | 0.00 | 0.00 | 7 | 1003.0 |
| 20260504182816 | 82 | 230 | 5.0 | 9.0 | 0.00 | 0.00 | 0.00 | 7 | 1003.0 |
| 20260504182314 | 82 | 207 | 3.0 | 6.0 | 0.00 | 0.00 | 0.00 | 7 | 1003.0 |
| 20260504181813 | 82 | 284 | 3.0 | 9.0 | 0.00 | 0.00 | 0.00 | 7 | 1003.0 |
| 20260504181317 | 81 | 265 | 3.0 | 7.0 | 0.00 | 0.00 | 0.00 | 7 | 1003.0 |
| 20260504180814 | 81 | 203 | 6.0 | 9.0 | 0.00 | 0.00 | 0.00 | 7 | 1003.0 |
| 20260504180315 | 81 | 263 | 3.0 | 7.0 | 0.00 | 0.00 | 0.00 | 7 | 1003.0 |
| 20260504175814 | 81 | 219 | 6.0 | 9.0 | 0.00 | 0.00 | 0.00 | 7 | 1003.0 |
| 20260504175314 | 79 | 250 | 4.0 | 7.0 | 0.00 | 0.00 | 0.00 | 7 | 1003.0 |
| 20260504174815 | 79 | 323 | 2.0 | 5.0 | 0.00 | 0.00 | 0.00 | 7 | 1003.0 |
| 20260504174313 | 79 | 210 | 8.0 | 11.0 | 0.00 | 0.00 | 0.00 | 7 | 1003.0 |
| 20260504173815 | 78 | 210 | 7.0 | 10.0 | 0.00 | 0.00 | 0.00 | 7 | 1003.0 |
| 20260504173314 | 79 | 211 | 9.0 | 10.0 | 0.00 | 0.00 | 0.00 | 7 | 1003.0 |
| 20260504172814 | 79 | 227 | 6.0 | 10.0 | 0.00 | 0.00 | 0.00 | 7 | 1003.0 |
| 20260504172313 | 79 | 194 | 8.0 | 10.0 | 0.00 | 0.00 | 0.00 | 7 | 1003.0 |
| 20260504171815 | 80 | 242 | 3.0 | 9.0 | 0.00 | 0.00 | 0.00 | 7 | 1003.0 |
| 20260504171313 | 80 | 241 | 3.0 | 8.0 | 0.00 | 0.00 | 0.00 | 7 | 1003.0 |
| 20260504170817 | 79 | 259 | 4.0 | 9.0 | 0.00 | 0.00 | 0.00 | 7 | 1003.0 |
| 20260504170314 | 79 | 230 | 3.0 | 7.0 | 0.00 | 0.00 | 0.00 | 7 | 1003.0 |
| 20260504160316 | 76 | 186 | 3.0 | 7.0 | 0.00 | 0.00 | 0.00 | 7 | 1003.0 |
| 20260504150813 | 72 | 226 | 8.0 | 11.0 | 0.00 | 0.00 | 0.00 | 7 | 1003.0 |
| 20260504150313 | 72 | 226 | 8.0 | 12.0 | 0.00 | 0.00 | 0.00 | 7 | 1003.0 |
| 20260504141316 | 69 | 241 | 8.0 | 10.0 | 0.00 | 0.00 | 0.00 | 7 | 1004.0 |
| 20260504140814 | 68 | 253 | 7.0 | 11.0 | 0.00 | 0.00 | 0.00 | 7 | 1004.0 |
| 20260504140316 | 68 | 217 | 9.0 | 14.0 | 0.00 | 0.00 | 0.00 | 7 | 1004.0 |
| 20260504130814 | 64 | 208 | 5.0 | 8.0 | 0.00 | 0.00 | 0.00 | 7 | 1004.0 |
| 20260504130313 | 63 | 212 | 7.0 | 9.0 | 0.00 | 0.00 | 0.00 | 7 | 1004.0 |
| 20260504120316 | 59 | 181 | 6.0 | 6.0 | 0.00 | 0.00 | 0.00 | 7 | 1003.0 |
| 20260504110314 | 58 | 186 | 6.0 | 9.0 | 0.00 | 0.00 | 0.00 | 7 | 1003.0 |
| 20260504100315 | 59 | 172 | 8.0 | 8.0 | 0.00 | 0.00 | 0.00 | 7 | 1004.0 |
| 20260504081814 | 63 | 167 | 5.0 | 6.0 | 0.00 | 0.00 | 0.00 | 7 | 1005.0 |
| 20260504081313 | 63 | 179 | 4.0 | 5.0 | 0.00 | 0.00 | 0.00 | 7 | 1005.0 |
| 20260504080815 | 63 | 176 | 4.0 | 5.0 | 0.00 | 0.00 | 0.00 | 7 | 1005.0 |
| 20260504080315 | 63 | 205 | 3.0 | 4.0 | 0.00 | 0.00 | 0.00 | 7 | 1005.0 |
| 20260504070314 | 64 | 225 | 4.0 | 4.0 | 0.00 | 0.00 | 0.00 | 7 | 1006.0 |